This is the latest recevied weather packets stored in our database for station/object VO2AGO. If no packets are shown the sender has not sent any weather packets the latest 10 day(s).
| Time | Temp. | Humidity | Pressure | Rain* | Wind** | Luminosity | Snow |
|---|---|---|---|---|---|---|---|
| 1778114149 | 1.67° C | - | - | - | 0 m/s | 0 W/m² | - |
| 1778113699 | 2.22° C | - | - | - | 0 m/s | 0 W/m² | - |
| 1778113250 | 2.22° C | - | - | - | 0 m/s | 1 W/m² | - |
| 1778112799 | 2.22° C | - | - | - | 0 m/s | 3 W/m² | - |
| 1778112349 | 2.22° C | - | - | - | 0 m/s | 5 W/m² | - |
| 1778111899 | 2.78° C | - | - | - | 0 m/s | 9 W/m² | - |
| 1778111449 | 2.78° C | - | - | - | 0 m/s | 13 W/m² | - |
| 1778110999 | 3.33° C | - | - | - | 0 m/s | 19 W/m² | - |
| 1778110549 | 3.89° C | - | - | - | 0 m/s | 28 W/m² | - |
| 1778110100 | 4.44° C | - | - | - | 0 m/s | 40 W/m² | - |
| 1778109649 | 4.44° C | - | - | - | 0 m/s | 58 W/m² | - |
| 1778109200 | 5° C | - | - | - | 0 m/s | 74 W/m² | - |
| 1778108750 | 5.56° C | - | - | - | 0 m/s | 89 W/m² | - |
| 1778108300 | 5.56° C | - | - | - | 0 m/s | 116 W/m² | - |
| 1778107849 | 6.11° C | - | - | - | 0 m/s | 145 W/m² | - |
| 1778107399 | 6.67° C | - | - | - | 0 m/s | 186 W/m² | - |
| 1778106949 | 6.67° C | - | - | - | 0 m/s | 239 W/m² | - |
| 1778106499 | 5.56° C | - | - | - | 0 m/s | 736 W/m² | - |
| 1778106049 | 5.56° C | - | - | - | 0 m/s | 239 W/m² | - |
| 1778105600 | 5° C | - | - | - | 0 m/s | 194 W/m² | - |
| 1778105150 | 5° C | - | - | - | 0 m/s | 233 W/m² | - |
| 1778104699 | 5° C | - | - | - | 0 m/s | 251 W/m² | - |
| 1778104250 | 5° C | - | - | - | 0 m/s | 258 W/m² | - |
| 1778103800 | 5° C | - | - | - | 0 m/s | 267 W/m² | - |
| 1778103349 | 5° C | - | - | - | 0 m/s | 267 W/m² | - |
* Rain since midnight (hover to see other rain measurements)
** Current wind speed in m/s (hover to see current wind gust speed)